Dewpoint
-10 -10 -8 -9 -10 -11 -12 -11 -10 -12 -7 -10 -9 -8 -9 -11 -13 -14 -15 -16 -16 -14 -13 -12 -11 -10 -10 -10 -10 -10 -10 -9 -8 -8 -8 -8 -8 -7 -6 -7 -6 -6 -6 -6
-9 -7 -9 -9 -10 -11 -12 -10 -11 -11 -9 -11 -9 -8 -9 -10 -14 -15 -16 -16 -15 -14 -13 -13 -12 -10 -9 -10 -11 -11 -10 -10 -10 -10 -9 -8 -7 -7 -7 -5 -5 -6 -6 -6
-8 -9 -9 -13 -10 -10 -10 -11 -12 -11 -11 -8 -9 -7 -8 -11 -14 -16 -16 -16 -15 -13 -12 -11 -11 -10 -11 -11 -11 -10 -9 -9 -8 -8 -8 -8 -7 -7 -7 -7 -7 -6 -6 -5
-6 -9 -11 -12 -10 -9 -9 -13 -11 -10 -9 -8 -9 -6 -7 -10 -15 -17 -17 -16 -14 -12 -11 -10 -11 -12 -12 -11 -10 -8 -7 -6 -6 -6 -6 -6 -6 -5 -6 -6 -7 -6 -6 -6
-5 -7 -9 -11 -8 -11 -12 -12 -10 -7 -7 -7 -7 -6 -9 -13 -14 -16 -16 -15 -13 -11 -11 -11 -13 -12 -12 -10 -8 -7 -6 -6 -6 -5 -5 -5 -5 -5 -5 -5 -5 -5 -5 -5
-8 -8 -10 -10 -8 -9 -13 -15 -9 -6 -6 -7 -10 -11 -11 -12 -14 -16 -16 -14 -12 -11 -11 -13 -13 -12 -10 -8 -7 -7 -7 -7 -6 -6 -6 -5 -5 -4 -4 -4 -4 -4 -5 -5
-12 -11 -10 -12 -14 -12 -13 -15 -9 -10 -12 -12 -12 -13 -9 -13 -16 -17 -15 -13 -11 -11 -12 -12 -12 -11 -9 -8 -8 -7 -7 -6 -5 -5 -4 -4 -4 -4 -4 -4 -4 -4 -4 -4
-12 -8 -12 -13 -12 -10 -12 -14 -14 -8 -14 -14 -15 -13 -7 -14 -20 -16 -14 -12 -11 -11 -12 -12 -11 -10 -9 -8 -7 -7 -6 -4 -3 -3 -3 -2 -3 -2 -2 -3 -3 -4 -4 -4
-13 -10 -10 -13 -14 -14 -13 -17 -11 -13 -14 -12 -16 -13 -9 -19 -18 -16 -13 -12 -11 -11 -12 -12 -12 -10 -9 -8 -7 -4 -3 -3 -3 -3 -3 -2 -2 -2 -2 -2 -2 -2 -3 -3
-11 -12 -12 -11 -13 -13 -18 -17 -17 -17 -5 -10 -21 -20 -14 -18 -16 -14 -12 -11 -11 -11 -11 -11 -10 -10 -8 -7 -5 -4 -3 -3 -3 -3 -3 -3 -3 -2 -2 -2 -2 -2 -2 -2
-12 -14 -13 -13 -11 -12 -17 -16 -16 -14 -12 -14 -14 -17 -17 -20 -15 -13 -12 -11 -11 -10 -10 -10 -10 -9 -7 -6 -4 -3 -3 -3 -3 -3 -3 -3 -3 -3 -2 -2 -2 -2 -2 -2
-9 -12 -13 -12 -15 -15 -16 -14 -15 -10 -11 -11 -10 -12 -22 -19 -15 -13 -11 -10 -10 -11 -10 -10 -9 -7 -6 -4 -3 -3 -3 -3 -3 -3 -3 -2 -2 -1 -2 -2 -2 -2 -2 -1
-9 -13 -13 -9 -10 -12 -13 -13 -13 -10 -10 -8 -9 -15 -22 -17 -14 -12 -10 -10 -11 -11 -11 -10 -8 -6 -4 -4 -3 -3 -3 -3 -3 -2 -1 -1 -1 -1 -1 -1 -1 -1 -2 -2
-7 -12 -15 -12 -13 -10 -10 -10 -12 -13 -10 -11 -12 -16 -16 -14 -12 -11 -9 -10 -10 -12 -10 -8 -6 -5 -4 -3 -3 -3 -3 -3 -2 -1 -1 -1 -1 -1 -1 -1 -1 -1 -1 -1
-13 -11 -12 -11 -12 -12 -13 -12 -11 -8 -13 -8 -13 -12 -14 -11 -11 -10 -9 -9 -12 -10 -9 -7 -5 -4 -4 -3 -3 -4 -3 -2 -2 -2 -1 -1 -1 -1 -0 -0 0 1 0 -1
-13 -9 -14 -10 -12 -14 -12 -12 -12 -12 -13 -13 -13 -15 -14 -11 -11 -9 -8 -11 -12 -9 -7 -6 -5 -4 -3 -3 -4 -3 -2 -2 -2 -2 -1 -1 -1 -1 -0 -0 0 1 1 -0
-12 -12 -13 -15 -14 -13 -12 -14 -13 -14 -14 -12 -13 -10 -10 -11 -9 -7 -8 -13 -10 -8 -6 -5 -4 -4 -4 -4 -4 -3 -2 -2 -1 -1 -1 -1 -1 -1 -1 -1 -0 0 0 0
-12 -10 -9 -12 -16 -9 -13 -13 -13 -11 -12 -12 -10 -10 -10 -10 -8 -8 -13 -11 -8 -7 -5 -4 -4 -4 -4 -3 -3 -2 -2 -1 -1 -1 -1 -1 -1 -1 -1 -1 -1 -1 -0 0
-14 -12 -5 -6 -16 -18 -13 -13 -13 -10 -12 -10 -9 -10 -10 -8 -8 -12 -13 -9 -8 -6 -4 -4 -4 -4 -3 -3 -2 -1 -1 -1 -2 -2 -1 -1 -2 -2 -2 -2 -1 -1 -1 -1
-13 -13 -7 -8 -8 -14 -14 -13 -10 -9 -13 -11 -10 -9 -8 -7 -6 -8 -9 -9 -8 -5 -4 -4 -4 -3 -3 -2 -1 -1 -1 -1 -2 -2 -2 -1 -1 -1 -2 -2 -2 -2 -1 -1
-10 -7 -7 -10 -7 -16 -16 -13 -8 -12 -13 -10 -9 -8 -6 -6 -7 -7 -9 -8 -7 -5 -4 -4 -4 -3 -3 -2 -1 -1 -1 -1 -2 -1 -1 -1 -1 -1 -1 -2 -2 -2 -2 -1
-12 -5 -7 -8 -7 -13 -14 -10 -10 -10 -9 -9 -8 -6 -6 -6 -7 -8 -9 -8 -6 -5 -4 -5 -4 -3 -2 -1 -1 -1 -1 -1 -1 -1 -2 -2 -2 -2 -1 -2 -2 -2 -2 -2
-10 -10 -8 -10 -17 -15 -13 -11 -9 -8 -8 -7 -6 -5 -6 -7 -8 -9 -8 -7 -5 -4 -4 -5 -4 -3 -1 -1 -1 -1 -2 -2 -2 -4 -4 -4 -5 -4 -4 -3 -3 -3 -3 -3
-14 -14 -12 -12 -15 -14 -11 -10 -9 -8 -7 -5 -5 -5 -7 -7 -9 -9 -8 -6 -5 -4 -5 -5 -4 -3 -1 -0 -0 -1 -2 -3 -5 -7 -6 -4 -5 -4 -4 -4 -6 -8 -6 -5
-15 -13 -13 -14 -14 -11 -8 -9 -8 -7 -5 -5 -6 -7 -7 -8 -9 -9 -8 -6 -5 -4 -5 -5 -5 -3 -1 -0 -0 -1 -6 -6 -9 -12 -15 -6 -4 -5 -4 -4 -4 -5 -5 -6
-14 -15 -15 -18 -12 -11 -10 -9 -8 -6 -5 -9 -10 -9 -12 -9 -10 -9 -8 -6 -4 -4 -5 -5 -4 -3 -1 -0 -0 -1 -8 -10 -16 -18 -19 -17 -10 -5 -5 -5 -6 -5 -6 -7
Wind_Speed
12 13 12 10 10 7 9 9 9 12 4 6 8 10 7 11 19 23 27 32 32 32 31 32 32 31 31 31 31 31 31 30 28 29 29 29 29 28 27 26 26 26 27 27
6 11 7 2 9 7 7 6 13 5 2 9 7 8 7 9 16 21 27 32 33 34 35 37 37 36 34 35 34 33 32 32 31 30 30 30 30 29 29 29 30 31 31 29
10 5 5 5 11 16 6 12 17 17 14 3 8 7 1 6 14 24 28 32 34 37 39 41 41 39 40 40 38 37 36 34 34 33 32 31 31 31 30 29 29 29 29 29
8 8 7 9 12 15 6 16 18 15 4 3 5 3 4 5 15 27 33 37 38 39 41 40 42 43 42 40 39 39 39 39 37 35 34 35 36 36 34 34 32 31 29 30
5 9 13 12 8 12 7 22 13 4 2 3 2 7 7 5 19 25 36 38 39 41 41 43 44 45 46 44 44 43 41 41 38 38 36 36 38 38 38 37 36 34 32 30
7 6 8 8 8 5 19 19 3 3 2 3 3 8 9 8 18 25 37 41 42 44 45 45 46 47 49 48 48 48 45 45 42 40 38 38 40 40 41 39 39 38 36 34
4 9 3 13 8 2 20 19 4 4 5 6 4 11 9 11 20 30 34 39 43 44 46 49 51 52 52 53 52 50 48 48 46 42 41 41 39 41 41 41 39 37 36 35
7 2 12 14 7 5 10 15 5 6 8 12 9 8 5 9 32 38 37 38 44 48 49 51 52 52 53 53 51 51 50 51 50 46 45 41 41 38 39 38 38 38 37 36
7 4 2 12 18 8 6 8 3 6 3 6 3 4 6 21 31 40 42 46 48 50 51 52 54 54 53 53 52 51 51 52 53 51 49 45 41 38 37 36 36 38 35 35
3 1 4 3 3 15 10 7 2 3 8 9 7 9 8 25 27 34 43 46 48 50 53 54 54 53 54 53 52 52 57 56 57 55 51 47 42 39 38 36 35 34 34 32
2 2 3 1 8 9 5 5 4 1 3 4 8 4 8 22 25 29 43 47 49 52 54 55 55 56 54 54 55 58 59 60 58 57 54 49 44 39 37 36 33 30 29 29
4 2 3 4 6 9 10 4 4 3 5 1 4 6 9 28 33 39 44 47 51 51 53 54 55 55 56 57 60 61 62 61 60 57 53 50 46 40 36 33 28 28 28 24
2 2 1 5 5 2 3 4 2 1 1 0 5 8 26 30 36 42 43 48 49 53 54 55 55 55 56 57 59 62 63 61 58 53 50 46 41 39 34 31 26 24 25 25
1 2 3 4 4 2 1 2 1 3 3 9 9 23 25 25 30 43 45 47 49 52 53 54 56 57 58 59 61 62 63 59 55 48 44 44 43 38 32 30 28 27 20 20
2 2 2 4 3 1 1 1 2 2 6 4 15 20 20 25 37 42 46 48 50 54 55 55 54 58 59 61 63 63 61 55 52 48 43 42 38 40 42 43 41 34 14 7
2 2 1 2 2 2 2 2 4 4 8 11 15 17 27 35 38 42 43 44 49 51 55 56 56 58 59 62 63 62 57 56 50 46 42 37 38 42 43 45 43 37 25 13
2 1 1 2 1 2 3 1 3 9 10 10 13 19 32 32 38 41 40 47 49 50 53 53 55 58 60 61 60 58 57 55 49 45 42 39 38 39 42 43 42 43 40 30
2 2 1 1 3 2 5 1 6 11 13 4 9 21 31 33 39 36 34 45 48 50 52 53 54 59 60 60 58 55 57 52 47 45 42 39 39 37 38 40 41 44 41 42
6 2 2 1 3 2 3 4 4 6 7 2 14 25 30 35 35 25 40 44 44 46 47 50 50 53 55 56 53 53 54 49 48 48 41 37 37 38 40 43 44 45 45 48
3 5 1 1 2 2 4 3 2 3 2 10 20 24 28 32 17 27 50 48 45 45 44 48 50 51 53 52 48 49 49 47 47 45 41 37 36 36 38 40 42 43 48 51
0 2 1 1 2 3 2 0 2 4 6 20 19 22 25 23 26 39 42 42 41 43 45 46 46 48 50 47 45 46 43 41 37 39 41 41 40 38 36 37 39 41 46 50
2 2 2 1 3 2 6 2 2 4 12 15 17 20 25 28 32 35 38 39 41 44 44 46 45 46 46 43 44 45 42 36 31 31 35 37 37 38 38 39 40 40 41 43
2 2 1 5 3 6 4 2 4 4 11 13 16 21 24 28 30 34 37 38 39 41 40 43 43 43 42 41 41 41 39 35 30 31 31 31 33 35 34 36 34 35 33 37
4 4 2 2 4 3 2 2 4 8 9 12 15 19 22 26 29 31 34 36 37 41 42 43 42 41 41 38 37 37 36 33 29 27 26 26 29 35 40 38 39 40 37 34
1 10 5 4 4 2 5 2 3 6 9 11 14 18 20 24 27 29 31 32 36 37 40 41 38 38 38 37 35 35 34 32 29 26 25 24 24 25 31 39 39 38 37 34
11 6 5 1 11 4 6 2 4 5 9 13 17 20 21 21 25 28 30 29 33 35 36 38 32 35 35 35 33 33 31 31 30 29 27 27 24 22 23 25 31 37 35 36
Wind_Direction
38 63 40 20 11 309 296 292 306 354 59 20 93 125 103 49 31 18 9 3 355 349 343 341 340 337 334 333 330 325 320 317 314 310 308 304 301 295 288 284 277 272 273 275
90 61 18 344 5 337 327 330 345 349 77 322 147 130 100 40 28 13 4 358 351 345 342 339 338 337 335 331 328 323 318 314 311 307 302 297 294 292 289 284 278 275 275 276
76 24 320 10 22 6 27 1 334 311 316 34 159 171 170 46 12 3 0 351 349 348 343 339 336 335 332 328 325 322 317 314 313 309 304 299 293 292 289 285 282 278 276 275
63 20 21 26 36 0 332 341 319 312 287 337 213 315 104 17 7 1 354 351 347 343 339 335 334 333 330 327 324 321 316 312 310 307 302 297 292 289 287 286 285 281 277 274
59 29 23 34 12 359 326 319 321 301 225 236 124 276 77 26 359 355 351 349 345 341 338 335 334 332 328 326 324 322 319 314 312 308 302 298 294 290 289 285 282 279 277 273
77 53 37 352 346 14 326 319 190 213 208 225 55 346 73 18 349 351 348 345 343 340 336 334 334 332 329 328 326 324 322 317 316 311 305 299 294 292 288 285 281 278 276 273
119 43 55 15 352 36 8 357 356 325 341 7 309 308 68 11 350 350 346 342 339 338 337 336 335 332 331 328 327 325 323 319 317 314 309 303 297 292 287 285 281 278 274 270
8 171 18 11 34 324 31 23 39 314 328 319 307 329 73 342 346 342 343 340 339 339 337 335 333 331 329 329 328 326 322 319 320 317 313 306 305 294 289 284 279 275 273 272
350 79 94 53 43 3 12 29 344 286 249 277 331 91 151 345 346 340 343 341 339 336 335 334 334 333 332 331 328 325 323 320 322 324 321 318 311 305 298 288 282 276 276 269
51 261 30 28 309 51 65 349 321 8 348 317 341 331 353 348 343 340 339 338 336 335 334 333 333 333 333 331 329 328 326 326 326 325 324 321 316 313 310 306 298 287 278 272
357 293 84 214 30 11 29 26 41 289 338 312 318 48 28 346 339 338 334 334 335 334 332 332 334 334 333 333 332 332 332 330 329 330 332 329 326 320 313 306 303 298 290 279
23 349 46 65 95 71 55 50 359 346 342 16 277 294 352 350 335 336 334 334 334 334 332 333 334 335 336 334 334 334 334 335 340 340 339 340 340 337 329 321 311 299 292 287
32 64 251 184 185 177 52 48 33 89 351 83 314 297 338 342 336 336 334 334 335 334 334 335 336 337 335 334 335 336 338 341 346 350 352 352 352 349 342 334 324 306 282 276
302 70 21 344 20 349 34 78 345 345 313 332 280 309 332 338 335 334 334 335 335 335 336 337 338 337 335 337 338 339 343 350 354 358 357 356 354 356 352 343 329 314 296 268
352 96 81 73 68 112 10 199 238 270 322 284 317 315 326 336 330 329 333 336 337 336 337 338 339 337 336 338 340 344 350 358 0 1 360 2 6 14 17 13 10 359 318 289
22 112 151 105 339 254 237 211 286 280 300 303 318 306 343 326 328 331 336 335 337 337 336 338 338 337 338 340 343 351 1 2 360 5 11 12 22 25 26 25 35 43 52 61
33 115 296 93 111 154 203 337 314 303 304 328 325 325 325 330 331 334 327 341 339 338 337 338 337 337 339 343 349 358 3 5 6 12 17 22 29 34 34 36 42 51 52 48
109 85 56 99 182 229 98 152 295 297 306 329 313 326 326 328 325 325 342 340 338 339 339 338 338 339 347 354 3 9 9 10 12 20 23 28 33 39 45 48 46 44 49 53
36 114 93 296 289 351 196 194 304 332 320 19 324 328 329 328 325 331 344 342 338 339 339 337 339 344 352 3 11 14 15 14 18 22 27 30 36 43 48 48 50 57 59 53
56 56 276 134 290 292 87 135 278 274 232 345 338 330 329 335 336 329 336 336 337 340 341 342 345 356 2 10 16 19 19 19 21 26 33 39 42 46 51 55 57 63 65 66
33 14 23 112 274 254 153 278 140 299 343 334 330 329 325 326 321 316 328 333 339 341 343 347 353 359 4 12 18 20 21 21 22 38 42 46 50 51 54 58 64 70 73 77
247 183 149 135 241 274 140 161 291 332 319 328 325 325 323 322 325 330 332 335 341 342 344 351 354 3 10 17 20 20 19 17 20 37 43 45 44 49 52 55 60 65 68 72
232 249 277 223 18 99 145 257 271 286 317 322 322 325 326 324 332 333 335 336 342 345 345 352 356 5 14 20 23 18 15 14 15 24 31 36 44 45 47 52 50 51 52 57
202 186 246 262 155 198 184 230 221 296 310 320 327 326 329 328 335 335 338 337 342 347 347 352 357 8 12 21 22 20 16 15 15 19 28 31 38 43 45 47 50 57 55 54
104 164 191 242 184 150 160 203 298 316 331 333 339 337 339 334 338 338 339 339 342 344 356 354 357 7 13 21 21 20 18 18 18 22 32 38 37 43 49 51 50 52 52 60
190 178 192 122 150 143 164 252 323 343 347 347 347 345 349 344 340 341 340 343 343 346 356 355 2 9 15 20 22 20 21 23 26 30 40 46 46 47 52 54 57 57 58 62
Height
1564 1567 1580 1583 1584 1582 1577 1573 1568 1567 1582 1580 1590 1596 1601 1603 1602 1600 1595 1591 1587 1581 1576 1571 1564 1557 1549 1543 1535 1529 1522 1515 1510 1504 1498 1491 1486 1480 1477 1474 1470 1468 1467 1465
1566 1581 1588 1587 1586 1581 1574 1573 1568 1573 1580 1579 1591 1598 1602 1601 1601 1600 1596 1591 1585 1578 1572 1565 1558 1552 1545 1538 1531 1523 1516 1508 1503 1497 1491 1485 1478 1473 1468 1464 1460 1459 1457 1456
1572 1591 1589 1587 1584 1579 1579 1580 1580 1581 1577 1585 1587 1594 1597 1600 1599 1597 1594 1590 1584 1577 1569 1560 1553 1547 1540 1532 1524 1517 1509 1501 1495 1490 1483 1477 1471 1465 1460 1456 1451 1449 1447 1445
1587 1592 1590 1585 1587 1590 1580 1582 1581 1579 1577 1564 1583 1561 1590 1598 1597 1596 1593 1587 1581 1575 1567 1560 1551 1543 1536 1528 1520 1511 1502 1493 1487 1482 1475 1468 1462 1456 1451 1447 1442 1439 1437 1434
1596 1595 1591 1588 1598 1596 1588 1583 1582 1580 1574 1574 1579 1575 1587 1598 1597 1593 1591 1586 1579 1573 1566 1556 1548 1539 1530 1521 1512 1503 1493 1485 1479 1472 1466 1459 1451 1446 1440 1437 1432 1429 1427 1425
1597 1600 1601 1602 1601 1601 1593 1574 1577 1578 1571 1559 1584 1583 1586 1600 1602 1594 1590 1585 1579 1571 1561 1552 1544 1535 1524 1513 1503 1493 1485 1475 1469 1462 1455 1448 1441 1435 1429 1425 1421 1417 1415 1413
1595 1604 1606 1607 1597 1597 1594 1573 1562 1557 1556 1568 1581 1578 1596 1606 1600 1598 1593 1586 1578 1571 1558 1547 1536 1526 1515 1504 1494 1485 1476 1465 1458 1451 1443 1436 1429 1423 1416 1412 1408 1405 1402 1401
1598 1587 1612 1615 1615 1611 1608 1600 1597 1604 1577 1577 1578 1575 1593 1604 1598 1594 1592 1586 1577 1567 1556 1544 1532 1521 1510 1499 1488 1478 1467 1456 1446 1439 1430 1423 1416 1410 1404 1399 1395 1392 1390 1388
1604 1608 1621 1621 1620 1615 1610 1611 1620 1610 1602 1593 1580 1589 1604 1599 1595 1589 1585 1578 1570 1562 1552 1540 1528 1517 1504 1494 1482 1471 1459 1447 1436 1426 1417 1409 1403 1396 1390 1385 1382 1379 1377 1376
1620 1608 1621 1622 1622 1623 1621 1625 1611 1610 1612 1597 1572 1576 1595 1598 1595 1589 1581 1576 1568 1558 1547 1534 1523 1511 1500 1488 1476 1464 1450 1437 1426 1416 1407 1398 1390 1383 1377 1372 1367 1365 1364 1364
1622 1617 1621 1622 1630 1629 1623 1624 1624 1625 1622 1615 1602 1585 1609 1606 1602 1596 1586 1576 1566 1555 1543 1531 1519 1507 1496 1483 1470 1456 1442 1429 1417 1407 1396 1387 1378 1372 1366 1361 1356 1353 1351 1351
1626 1621 1618 1634 1639 1638 1634 1637 1635 1624 1626 1632 1634 1614 1608 1611 1606 1600 1588 1578 1566 1555 1543 1530 1517 1504 1491 1477 1463 1450 1436 1424 1411 1399 1388 1377 1369 1362 1355 1350 1346 1342 1340 1340
1625 1618 1610 1625 1636 1637 1637 1643 1644 1642 1646 1639 1640 1601 1608 1611 1604 1599 1588 1576 1565 1552 1539 1527 1513 1501 1488 1473 1460 1446 1432 1419 1407 1395 1384 1374 1365 1356 1349 1342 1336 1332 1330 1330
1628 1625 1620 1615 1627 1639 1639 1646 1646 1642 1635 1640 1627 1612 1610 1607 1601 1595 1584 1576 1565 1551 1538 1525 1511 1499 1484 1472 1458 1443 1429 1417 1404 1393 1383 1373 1364 1355 1346 1337 1328 1321 1319 1320
1629 1624 1631 1639 1641 1641 1641 1642 1644 1648 1640 1643 1629 1626 1617 1614 1606 1596 1586 1573 1560 1547 1533 1524 1512 1497 1483 1469 1456 1443 1429 1416 1404 1393 1384 1375 1366 1356 1344 1333 1322 1311 1307 1313
1632 1629 1634 1639 1644 1642 1640 1643 1643 1641 1638 1635 1634 1622 1623 1616 1608 1594 1585 1572 1561 1549 1534 1523 1511 1497 1483 1470 1456 1443 1430 1416 1406 1398 1388 1379 1369 1359 1348 1338 1328 1319 1314 1314
1632 1632 1631 1624 1644 1641 1634 1637 1639 1638 1633 1636 1629 1626 1620 1614 1604 1598 1584 1576 1563 1551 1537 1525 1511 1498 1484 1471 1459 1446 1433 1421 1412 1403 1393 1384 1375 1365 1355 1347 1339 1330 1324 1320
1634 1636 1640 1628 1639 1619 1635 1641 1640 1638 1636 1636 1634 1629 1620 1614 1605 1597 1588 1578 1564 1552 1538 1525 1513 1500 1486 1473 1461 1449 1438 1427 1418 1408 1399 1390 1382 1373 1364 1355 1347 1341 1334 1326
1638 1636 1643 1627 1621 1631 1637 1639 1639 1639 1634 1635 1634 1628 1620 1609 1598 1591 1586 1577 1566 1555 1543 1531 1518 1504 1491 1477 1464 1453 1443 1434 1425 1415 1406 1398 1391 1383 1374 1365 1358 1351 1343 1337
1640 1639 1633 1637 1627 1614 1629 1638 1641 1640 1626 1633 1630 1624 1618 1610 1594 1583 1580 1572 1564 1555 1544 1531 1518 1506 1494 1481 1470 1460 1450 1441 1432 1424 1416 1408 1401 1393 1385 1378 1370 1364 1356 1350
1635 1640 1634 1631 1628 1623 1633 1637 1639 1627 1628 1631 1630 1624 1618 1613 1610 1597 1586 1574 1566 1556 1543 1531 1519 1509 1498 1487 1476 1466 1459 1450 1444 1435 1426 1418 1411 1404 1398 1392 1384 1377 1370 1362
1628 1629 1631 1644 1635 1620 1634 1636 1636 1634 1632 1630 1625 1621 1617 1610 1604 1595 1585 1574 1564 1553 1541 1531 1520 1511 1501 1491 1481 1472 1465 1459 1452 1443 1435 1428 1422 1416 1409 1403 1397 1390 1384 1377
1627 1630 1627 1630 1621 1632 1634 1634 1633 1633 1632 1628 1625 1619 1614 1605 1599 1593 1583 1573 1565 1555 1544 1535 1524 1514 1504 1496 1487 1479 1472 1465 1458 1450 1443 1437 1432 1425 1420 1413 1407 1401 1397 1392
1632 1633 1630 1633 1630 1632 1633 1632 1632 1631 1628 1627 1622 1618 1611 1606 1599 1592 1584 1575 1565 1554 1544 1536 1526 1516 1507 1499 1493 1486 1478 1470 1464 1457 1451 1446 1439 1434 1428 1423 1417 1412 1407 1404
1626 1631 1628 1627 1630 1632 1631 1631 1630 1629 1627 1625 1621 1617 1613 1606 1598 1592 1582 1575 1566 1556 1546 1538 1529 1520 1512 1504 1498 1491 1483 1476 1470 1464 1458 1452 1448 1444 1439 1435 1430 1425 1422 1418
1620 1619 1619 1614 1622 1626 1628 1628 1626 1626 1624 1621 1617 1612 1608 1604 1596 1590 1583 1574 1566 1557 1547 1539 1531 1524 1515 1509 1503 1496 1489 1482 1477 1471 1465 1460 1456 1453 1449 1446 1443 1439 1435 1430